< < Back
Terminal Aerodrome Forecast


Current Version              Previous Versions:   1  2  3  4  5  6  7  8  9  

Terminal Aerodrome Forecast

057
FTUS44 KHUN 311720
TAFHSV
TAF
KHSV 311720Z 3118/0118 22005KT P6SM VCSH SCT045 BKN080 BKN250
     FM010000 VRB04KT P6SM VCSH SCT050 BKN120
     FM010600 36003KT P6SM SKC
     FM011500 09004KT P6SM SCT030=



Latest METAR

614
SAUS80 KWBC 011000 RRF
MTRHSV
METAR KHSV 010953Z AUTO 00000KT 10SM CLR 14/13 A3001 RMK AO2 SLP157
T01390128 $


USA.gov is the U.S. government's official web portal to all federal, state and local government web resources and services.